Location: Ferchesar
(52.6477°N, 12.4298°E)
Time: 12:52:22
(UTC+01:00)

Altair - Pass Details

Date: 08 December 2021
Orbit: 1501 x 1683 km, 47.2° (Epoch: 20 January)

Event Time Altitude Azimuth Distance (km) Brightness Sun altitude
Rises 16:43:04 0° 253° (WSW) 4,772 12.1 -6.8°
Reaches altitude 10° 16:46:13 10° 251° (WSW) 3,763 11.2 -7.2°
Maximum altitude 16:55:31 63° 173° (S) 1,684 7.8 -8.5°
Drops below altitude 10° 17:04:32 10° 96° (E) 3,662 9.0 -9.7°
Enters shadow 17:05:48 - 95° (E) 4,064 9.2 -9.9°
